THOR ABLESTAR DEB, 2432

Orbit data source: Space-Track

THOR ABLESTAR DEB, 2432 is space debris in LEO originally from a launch on Thu, 05 Dec 1963 UTC launched from the Air Force Western Test Range (AFWTR). Debris objects in space refer to the collection of defunct objects orbiting the Earth. Examples of debris include non-operational satellites, rocket bodies, and fragments generated from explosions, collisions, or faulty payload assembly.

Loading next visibility...
Identifier
2432, 1963-049G
Orbit
LEO
Country
Flag of USUS
Related business
Manufacturer
Unknown
Mission
Spacecraft
Bus & Motor
Unknown
Mass
Unknown
Launch date (UTC)
1963-12-05 (62 years ago)
Launch vehicle
Unknown
Launch site
Air Force Western Test Range (AFWTR)
Object type
Payload
Rocket body
Debris
Shape & HBR
Unknown shape, 0.2 m
Radar Cross Section
Medium (>0.1 m² and <1 m²)

Expand to show TLE details & history
Last TLE update: 16 hours ago

TLE from 16 hours ago
0 THOR ABLESTAR DEB
1 02432U 63049G   25310.79374076  .00000130  00000-0  19380-3 0  9995
2 02432  89.9208  72.4448 0035196 152.8301   1.0914 13.48215554 42731
Epoch: 2025-11-06T19:02Z
TLE epoch observation values (Epoch: 2025-11-06T19:02:59.201Z)
Latitude
26.10193°
Longitude
-79.58743°
Altitude
1,055.809 km
Speed
7.339 km/s
True Right ascension
16h 49m 37s
True Declination
25° 58' 18"
Sunlit
Object was in daylight at epoch
Visualization orbit readout
Latitude
Unknown
Longitude
Unknown
Altitude
Unknown
Speed
Unknown
Apparent Right ascension
Unknown
Apparent Declination
Unknown
Sunlit
N/A
Visualization observer readout
Local Sidereal Time
07:23:33
Azimuth
Unknown
Elevation
Unknown
Doppler factor
Unknown
Orbital elements
Apogee altitude
1,102.119 km
Perigee altitude
1,049.648 km
Semi-major axis
7,454.02 km
Eccentricity
0.00352
Inclination
89.9208°
RAAN
72.4448°
Arg. of periapsis
152.8301°
True anomaly
1.09912°
Mean anomaly
1.0914°
Eccentric anomaly
1.09525°
Mean motion
3.37254 °/min
Orbital period
106.74 mins
BSTAR
0.0001938
Loading maneuver chart data...
Computing Atmospheric mass density...
Loading historical data...
Loading historical data...
Loading historical data...
Loading historical data...
Loading historical data...
Loading historical data...
Loading historical data...

Documentation

Showing up to 5 results
|